Location: Buch
(49.7331°N, 12.1098°E)
Time: 01:09:47
(UTC+00:00)

Nadezhda 3 Rocket - Pass Details

Date: 12 May 2021
Orbit: 956 x 1000 km, 82.9° (Epoch: 18 June)

Event Time Altitude Azimuth Distance (km) Brightness Sun altitude
Exits shadow 23:01:04 43° 180° (S) 1,353 4.2 -21.9°
Maximum altitude 23:03:19 83° 97° (E) 988 3.9 -21.9°
Drops below altitude 10° 23:09:34 10° 11° (N) 2,719 7.4 -21.9°
Sets 23:12:04 0° 11° (N) 3,664 8.5 -21.9°
